Miscellaneous Local Product
Issued by NWS Hastings, NE

Home | Current Version | Previous Version | Graphics & Text | Print | Product List | Glossary On
Versions: 1 2 3 4 5 6 7 8 9 10 11 12 13 14 15 16 17 18 19 20 21 22 23 24 25 26 27 28 29 30 31 32 33 34 35 36 37 38 39 40 41 42 43 44 45 46 47 48 49 50
883
AXUS43 KGID 041302
MISGRI

GID CWA HOURLY WEATHER ROUNDUP
NATIONAL WEATHER SERVICE HASTINGS NE
800 AM CDT WED MAY 04 2016

NOTE: "FAIR" INDICATES FEW OR NO CLOUDS BELOW 12,000 FEET WITH NO
SIGNIFICANT WEATHER AND/OR OBSTRUCTIONS TO VISIBILITY.

...SOUTH CENTRAL NEBRASKA...

CITY           SKY/WX    TMP DP  RH WIND       PRES   REMARKS
GRAND ISLAND   SUNNY     50  39  66 NW9       30.09R
HASTINGS       SUNNY     50  40  68 N12       30.08R
KEARNEY        SUNNY     48  39  71 N8        30.11R
ORD            SUNNY     47  39  74 NW8       30.10R
YORK           SUNNY     50  37  62 N10       30.06R
AURORA         SUNNY     50  40  69 NW10      30.07R
LEXINGTON      SUNNY     46  42  85 NW6       30.13R
HOLDREGE       SUNNY     47  41  78 NW7       30.10R
HEBRON         SUNNY     53  40  62 N8        30.03R

...NEBRASKA PANHANDLE...

CITY           SKY/WX    TMP DP  RH WIND       PRES   REMARKS
CHADRON        SUNNY     43  39  86 SW6       30.19R
ALLIANCE       SUNNY     41  37  86 CALM      30.19R
SCOTTSBLUFF    SUNNY     44  39  82 NW8       30.20R
SIDNEY         SUNNY     44  38  79 W8        30.21R

...WESTERN AND NORTH CENTRAL NEBRASKA...

CITY           SKY/WX    TMP DP  RH WIND       PRES   REMARKS
VALENTINE      SUNNY     45  38  76 W5        30.15R
AINSWORTH      SUNNY     47  38  70 NW5       30.13S
ONEILL         SUNNY     45  35  68 NW7       30.10R
BROKEN BOW     SUNNY     49  40  71 N7        30.12R
IMPERIAL       SUNNY     47  40  76 N8        30.17R
NORTH PLATTE   SUNNY     45  42  89 NW3       30.15R
MCCOOK         SUNNY     47  40  76 W8        30.15R

...EASTERN NEBRASKA...

CITY           SKY/WX    TMP DP  RH WIND       PRES   REMARKS
NORFOLK        SUNNY     49  36  61 NW10      30.07R
SO SIOUX CITY  SUNNY     49  38  65 NW13      30.04R
TEKAMAH        SUNNY     51  38  60 N12       30.03R
COLUMBUS       SUNNY     50  34  53 NW13G18   30.06R
ALBION         SUNNY     45  38  77 NW7       30.09R
OMAHA EPPLEY   SUNNY     51  38  60 N12       30.00R
OFFUTT AFB     SUNNY     53  37  53 N13       29.99R
MILLARD        SUNNY     51  36  55 NW6       30.00R
LINCOLN        SUNNY     53  36  52 NW13      30.04R
NEBRASKA CITY  SUNNY     51  36  55 N12G17    29.98R
BEATRICE       SUNNY     51  41  68 N13       30.02R
FALLS CITY     SUNNY     54  39  57 NW12      29.97R

...NORTHERN KANSAS...

CITY           SKY/WX    TMP DP  RH WIND       PRES   REMARKS
GOODLAND       SUNNY     48  37  65 W12       30.18R
HILL CITY      SUNNY     53  41  63 N12       30.12R
NORTON         SUNNY     48  37  66 NW9       30.12
PHILLIPSBURG   SUNNY     50  43  76 CALM      30.11R
SMITH CENTER   SUNNY     46  45  93 NW5       30.09R
BELOIT         SUNNY     50  45  81 NW8       30.06R
HAYS           SUNNY     52  37  58 NW10      30.10R
RUSSELL        SUNNY     51  44  77 NW7       30.07R
CONCORDIA      SUNNY     53  41  63 N8        30.05R
SALINA         MOSUNNY   54  47  77 NW8       30.04R
TOPEKA         SUNNY     55  44  66 NW10      29.96R



USA.gov is the U.S. government's official web portal to all federal, state and local government web resources and services.